Weather History for KLAR - November, 2013

Change the Weather History Date:

Saturday, November 23, 2013

  Actual Average Record
Temperature  
Mean Temperature 18 °F 26 °F  
Max Temperature 28 °F 37 °F 56 °F (2006)
Min Temperature 7 °F 14 °F -18 °F (2003)
Degree Days  
Heating Degree Days 47 39  
Month to date heating degree days 744 784  
Since 1 July heating degree days 1885 2027  
Cooling Degree Days 0 0  
Month to date cooling degree days 0 0  
Year to date cooling degree days 162 67  
Moisture  
Dew Point 10 °F    
Average Humidity 64    
Maximum Humidity 80    
Minimum Humidity 48    
Precipitation  
Precipitation 0.00 in 0.02 in 0.32 in (1992)
Month to date precipitation 0.20 0.44  
Year to date precipitation 11.66 10.50  
Sea Level Pressure  
Sea Level Pressure 30.53 in    
Wind  
Wind Speed 17 mph (SSE)    
Max Wind Speed 28 mph    
Max Gust Speed 32 mph    
Visibility 10 miles    
Events      
T = Trace of Precipitation, MM = Missing Value Source: NWS Daily Summary

Daily Weather History Graph

Daily Weather History Graph

Search for Another Location

Airport or City:

Trip Planner

Search our weather history database for the weather conditions in past years. The results will help you decide how hot, cold, wet, or windy it might be!

Date:

Astronomy

Nov. 23, 2013 Rise Set
Actual Time 7:00 AM MST 4:37 PM MST
Civil Twilight 6:30 AM MST 5:07 PM MST
Nautical Twilight 5:56 AM MST 5:41 PM MST
Astronomical Twilight 5:23 AM MST 6:14 PM MST
Moon 10:09 PM MST (11/23) 11:17 AM MST (11/23)
Length of Visible Light 10h 37m
Length of Day
9h 36m
Waning Gibbous, 69% of the Moon is Illuminated
Nov 23
Waning Gibbous
Nov 25
Last Quarter
Dec 2
New
Dec 9
First Quarter
Dec 17
Full

Hourly Weather History & Observations

Time (MST) Temp. Windchill Dew Point Humidity Pressure Visibility Wind Dir Wind Speed Gust Speed Precip Events Conditions
12:53 AM 9.0 °F -2.2 °F 1.9 °F 73% 30.69 in 10.0 mi SE 6.9 mph - N/A   Clear
1:53 AM 16.0 °F 2.3 °F 1.9 °F 54% 30.63 in 10.0 mi SSE 12.7 mph - N/A   Clear
2:53 AM 14.0 °F 2.9 °F -2.0 °F 49% 30.65 in 10.0 mi SSE 8.1 mph - N/A   Clear
3:53 AM 12.9 °F -0.9 °F -4.0 °F 47% 30.65 in 10.0 mi South 11.5 mph - N/A   Clear
4:53 AM 14.0 °F 1.2 °F -2.9 °F 47% 30.67 in 10.0 mi SSE 10.4 mph - N/A   Clear
5:53 AM 12.0 °F -1.3 °F -2.9 °F 51% 30.68 in 10.0 mi South 10.4 mph - N/A   Clear
6:53 AM 15.1 °F 0.5 °F -0.0 °F 51% 30.69 in 10.0 mi South 13.8 mph - N/A   Clear
7:53 AM 16.0 °F 1.7 °F 3.9 °F 59% 30.69 in 10.0 mi South 13.8 mph - N/A   Clear
8:53 AM 18.0 °F 4.2 °F 6.1 °F 60% 30.67 in 10.0 mi South 13.8 mph - N/A   Clear
9:53 AM 21.9 °F 5.8 °F 15.1 °F 75% 30.66 in 10.0 mi South 23.0 mph - N/A   Clear
10:53 AM 25.0 °F 10.6 °F 18.0 °F 75% 30.62 in 10.0 mi SSE 20.7 mph - N/A   Clear
11:53 AM 24.1 °F 9.4 °F 16.0 °F 71% 30.58 in 10.0 mi SSE 20.7 mph 25.3 mph N/A   Clear
12:53 PM 28.0 °F 14.9 °F 17.1 °F 63% 30.51 in 10.0 mi SSE 19.6 mph 26.5 mph N/A   Clear
1:53 PM 28.0 °F 14.3 °F 16.0 °F 61% 30.45 in 10.0 mi SSE 21.9 mph - N/A   Clear
2:53 PM 26.1 °F 13.1 °F 14.0 °F 60% 30.45 in 10.0 mi SSE 17.3 mph - N/A   Clear
3:53 PM 24.1 °F 11.0 °F 15.1 °F 69% 30.45 in 10.0 mi SSE 16.1 mph - N/A   Clear
4:53 PM 21.0 °F 4.3 °F 16.0 °F 81% 30.43 in 10.0 mi SE 24.2 mph 31.1 mph N/A   Clear
5:53 PM 21.0 °F 4.3 °F 15.1 °F 78% 30.43 in 10.0 mi SE 24.2 mph 32.2 mph N/A   Clear
6:53 PM 21.0 °F 3.9 °F 16.0 °F 81% 30.40 in 10.0 mi SSE 25.3 mph - N/A   Clear
7:53 PM 21.0 °F 3.9 °F 15.1 °F 78% 30.40 in 9.0 mi SSE 25.3 mph 31.1 mph N/A   Partly Cloudy
8:53 PM 21.0 °F 5.7 °F 15.1 °F 78% 30.36 in 10.0 mi SSE 19.6 mph 26.5 mph N/A   Scattered Clouds
9:53 PM 21.0 °F 5.0 °F 14.0 °F 74% 30.32 in 10.0 mi SSE 21.9 mph 28.8 mph N/A   Partly Cloudy
10:53 PM 19.9 °F 4.8 °F 12.0 °F 71% 30.28 in 10.0 mi SSE 18.4 mph - N/A   Clear
11:53 PM 21.9 °F 7.3 °F 12.9 °F 68% 30.25 in 10.0 mi SSE 18.4 mph - N/A   Clear